Weather reports worldwide

Advertisment
Tulloch Bridge, United Kingdom (3047): temperature & dewpoint: 19.05.2019 23:00:00 - 25.05.2019 23:00:00 (BST)Tulloch Bridge, United Kingdom (3047): temperature -20cm & temperature -100cm: 19.05.2019 23:00:00 - 25.05.2019 23:00:00 (BST)Tulloch Bridge, United Kingdom (3047): wind speed & gusts: 19.05.2019 23:00:00 - 25.05.2019 23:00:00 (BST)Tulloch Bridge, United Kingdom (3047): wind direction: 19.05.2019 23:00:00 - 25.05.2019 23:00:00 (BST)Tulloch Bridge, United Kingdom (3047): reduced air pressure: 19.05.2019 23:00:00 - 25.05.2019 23:00:00 (BST)Tulloch Bridge, United Kingdom (3047): visibility: 19.05.2019 23:00:00 - 25.05.2019 23:00:00 (BST)Tulloch Bridge, United Kingdom (3047): precipitation: 19.05.2019 23:00:00 - 25.05.2019 23:00:00 (BST)
Date & Time tt [°C] td [°C] tt -20cm [°C] tt -100cm [°C] ff [km/h] ff [kn] fx [km/h] fx [kn] dd ppp [hPa] vv [km] rr [mm]
25.05.2019 23:00:00 - - - - - - - - - - - 1,8
25.05.2019 22:00:00 9,4 9,3 - - 2 1 - - NE 1011,1 4,1 0,8
25.05.2019 21:00:00 9,5 9,3 - - 4 2 - - N 1011,3 14 0,6
25.05.2019 20:00:00 9,3 9,3 - - 2 1 - - ENE 1011,5 9 0,8
25.05.2019 19:00:00 9,4 9,2 - - 8 4 - - N 1012,2 4,6 1,0
25.05.2019 18:00:00 9,9 9,5 - - 5 3 - - NW 1012,4 5 1,6
25.05.2019 17:00:00 10,0 9,4 - - 13 7 - - SSW 1012,9 7 0,6
25.05.2019 16:00:00 9,6 9,0 - - 11 6 - - S 1014,0 4,3 0,6
25.05.2019 15:00:00 9,5 8,3 - - 4 2 - - NW 1014,8 7 0,6
25.05.2019 14:00:00 9,1 7,5 - - 5 3 - - NNW 1015,4 14 0,2
25.05.2019 13:00:00 8,9 7,4 - - 11 6 - - WNW 1016,2 18 0,6
25.05.2019 12:00:00 9,0 6,3 - - 5 3 - - NNW 1016,6 12 0,0
25.05.2019 11:00:00 8,7 5,8 - - 5 3 - - NNW 1017,1 20 0,0
25.05.2019 10:00:00 7,9 5,6 11,4 10,7 4 2 - - N 1017,8 16 0,0
25.05.2019 09:00:00 7,9 5,3 - - 8 4 - - NW 1018,1 21 0,0
25.05.2019 08:00:00 7,2 5,1 - - 5 3 - - NNW 1018,4 24 0,0
25.05.2019 07:00:00 6,6 5,2 - - 5 3 - - S 1018,5 18 0,0
25.05.2019 06:00:00 5,6 4,8 - - 2 1 - - S 1018,9 17 0,0
25.05.2019 05:00:00 4,7 4,5 - - 5 3 - - S 1019,0 18 0,0
25.05.2019 04:00:00 3,7 3,7 - - 5 3 - - S 1019,0 16 0,0
25.05.2019 03:00:00 3,0 2,9 - - 0 0 - - N 1019,7 13 0,0
25.05.2019 02:00:00 2,8 2,7 - - 4 2 - - SSW 1020,0 14 0,0
25.05.2019 01:00:00 2,6 2,4 - - 2 1 - - E 1020,2 8 0,0
25.05.2019 00:00:00 3,2 2,3 - - 2 1 - - SSW 1020,3 15 0,0
24.05.2019 23:00:00 5,1 2,0 - - 2 1 - - WSW 1019,8 19 0,0
24.05.2019 22:00:00 8,3 4,0 - - 8 4 - - SW 1019,1 29 0,0
24.05.2019 21:00:00 10,2 4,6 - - 13 7 - - W 1018,6 24 0,0
24.05.2019 20:00:00 10,6 4,8 - - 16 9 - - W 1018,5 23 0,0
24.05.2019 19:00:00 11,3 4,4 - - 9 5 - - W 1017,8 22 0,0
24.05.2019 18:00:00 12,4 5,1 - - 15 8 - - W 1017,5 30 0,0
24.05.2019 17:00:00 12,6 4,5 - - 13 7 - - W 1017,5 27 0,0
24.05.2019 16:00:00 12,8 5,4 - - 16 9 - - W 1017,6 30 0,0
24.05.2019 15:00:00 11,1 4,7 - - 16 9 - - W 1017,8 29 0,0
24.05.2019 14:00:00 11,0 4,6 - - 15 8 - - WNW 1017,8 35 0,0
24.05.2019 13:00:00 10,9 4,8 - - 16 9 - - W 1017,4 29 0,0
24.05.2019 12:00:00 9,5 4,3 - - 13 7 - - W 1017,6 30 0,0
24.05.2019 11:00:00 9,2 4,7 - - 15 8 - - W 1017,6 30 0,0
24.05.2019 10:00:00 8,4 4,4 11,2 10,7 15 8 - - W 1017,6 30 0,0
24.05.2019 09:00:00 7,8 4,1 - - 15 8 - - WNW 1017,5 45 0,0
24.05.2019 08:00:00 7,5 4,3 - - 16 9 - - W 1017,1 50 0,0
24.05.2019 07:00:00 7,2 4,2 - - 16 9 - - WNW 1016,8 50 0,0
24.05.2019 06:00:00 7,0 4,3 - - 11 6 - - W 1016,3 35 0,0
24.05.2019 05:00:00 7,0 4,3 - - 8 4 - - W 1016,1 35 0,0
24.05.2019 04:00:00 7,1 4,2 - - 13 7 - - W 1016,2 50 0,0
24.05.2019 03:00:00 7,2 4,7 - - 8 4 - - WSW 1015,9 45 0,0
24.05.2019 02:00:00 7,5 4,6 - - 11 6 - - SW 1016,0 50 0,0
24.05.2019 01:00:00 7,6 4,7 - - 18 10 48 26 W 1015,6 45 0,0
24.05.2019 00:00:00 7,8 4,6 - - 13 7 - - W 1015,0 50 0,0
23.05.2019 23:00:00 8,0 4,3 - - 16 9 - - SSW 1014,9 45 0,0
23.05.2019 22:00:00 8,1 4,0 - - 13 7 - - SW 1015,0 50 0,0
23.05.2019 21:00:00 8,5 5,1 - - 15 8 - - W 1014,8 50 0,0
23.05.2019 20:00:00 8,9 5,3 - - 15 8 - - SW 1014,4 50 0,0
23.05.2019 19:00:00 9,2 5,5 - - 15 8 - - SW 1014,3 50 0,0
23.05.2019 18:00:00 9,9 5,7 - - 22 12 54 29 W 1014,0 50 0,0
23.05.2019 17:00:00 11,1 6,3 - - 15 8 - - WSW 1013,5 40 0,0
23.05.2019 16:00:00 10,8 6,0 - - 21 11 - - SW 1013,4 45 0,0
23.05.2019 15:00:00 10,5 6,6 - - 18 10 - - W 1013,6 35 0,0
23.05.2019 14:00:00 9,8 6,2 - - 18 10 - - SSW 1013,8 50 0,0
23.05.2019 13:00:00 9,3 6,7 - - 16 9 - - SSW 1013,9 14 0,0
23.05.2019 12:00:00 9,4 7,1 - - 16 9 - - W 1013,9 16 0,0
23.05.2019 11:00:00 9,7 6,0 - - 13 7 - - SSW 1013,8 50 0,0
23.05.2019 10:00:00 9,4 6,1 11,5 10,7 11 6 - - WSW 1013,8 50 0,0
23.05.2019 09:00:00 8,8 5,8 - - 9 5 - - W 1013,9 50 0,0
23.05.2019 08:00:00 8,2 6,1 - - 13 7 - - W 1014,2 45 0,0
23.05.2019 07:00:00 8,3 5,9 - - 15 8 - - WNW 1013,9 50 0,0
23.05.2019 06:00:00 8,4 6,0 - - 15 8 - - W 1013,9 50 0,0
23.05.2019 05:00:00 8,2 6,3 - - 8 4 - - SW 1014,1 50 0,0
23.05.2019 04:00:00 8,4 6,1 - - 9 5 - - WSW 1014,5 50 0,0
23.05.2019 03:00:00 8,7 5,9 - - 11 6 - - SW 1014,6 50 0,0
23.05.2019 02:00:00 8,8 6,1 - - 9 5 - - SSW 1015,0 50 0,0
23.05.2019 01:00:00 8,9 6,2 - - 13 7 - - SSW 1015,1 50 0,0
23.05.2019 00:00:00 8,8 6,5 - - 9 5 - - SW 1015,4 35 0,0
22.05.2019 23:00:00 8,7 6,4 - - 15 8 - - SSW 1015,9 50 0,0
22.05.2019 22:00:00 8,6 6,4 - - 13 7 - - SSW 1016,1 50 0,0
22.05.2019 21:00:00 8,7 6,2 - - 11 6 - - SSW 1016,2 50 0,0
22.05.2019 20:00:00 9,0 6,0 - - 13 7 - - SSW 1016,3 45 0,0
22.05.2019 19:00:00 9,3 6,0 - - 8 4 - - W 1016,6 50 0,0
22.05.2019 18:00:00 9,0 7,6 - - 9 5 - - NW 1016,8 50 0,2
22.05.2019 17:00:00 9,1 7,3 - - 8 4 - - W 1017,0 12 0,0
22.05.2019 16:00:00 9,1 7,2 - - 15 8 - - SW 1017,1 11 0,4
22.05.2019 15:00:00 9,5 7,3 - - 13 7 - - WNW 1017,1 11 0,2
22.05.2019 14:00:00 9,3 7,2 - - 18 10 - - WNW 1017,4 9 0,2
22.05.2019 13:00:00 8,9 7,3 - - 9 5 - - NW 1017,5 11 0,2
22.05.2019 12:00:00 9,6 6,2 - - 9 5 - - W 1017,6 30 0,0
22.05.2019 11:00:00 9,0 5,6 - - 11 6 - - WSW 1017,8 45 0,0
22.05.2019 10:00:00 9,0 5,2 12,0 10,7 11 6 - - WSW 1017,9 50 0,0
22.05.2019 09:00:00 7,7 5,8 - - 8 4 - - WNW 1018,1 50 0,0
22.05.2019 08:00:00 7,0 5,3 - - 9 5 - - NW 1018,3 50 0,2
22.05.2019 07:00:00 6,9 4,5 - - 11 6 - - WNW 1018,4 45 0,0
22.05.2019 06:00:00 6,1 4,1 - - 5 3 - - NW 1018,6 50 0,0
22.05.2019 05:00:00 5,5 4,1 - - 9 5 - - NNW 1019,0 50 0,0
22.05.2019 04:00:00 5,1 4,3 - - 4 2 - - NW 1019,4 50 0,0
22.05.2019 03:00:00 3,2 2,1 - - 5 3 - - E 1019,8 50 0,0
22.05.2019 02:00:00 6,2 2,9 - - 8 4 - - W 1019,7 50 0,0
22.05.2019 01:00:00 6,5 2,9 - - 8 4 - - W 1019,9 50 0,0
22.05.2019 00:00:00 7,4 3,7 - - 9 5 - - WNW 1019,9 50 0,0
21.05.2019 23:00:00 8,7 3,7 - - 15 8 - - W 1019,8 50 0,0
21.05.2019 22:00:00 8,8 4,1 - - 13 7 - - WNW 1019,7 50 0,0
21.05.2019 21:00:00 9,5 3,1 - - 11 6 - - W 1019,6 50 0,0
21.05.2019 20:00:00 11,2 3,3 - - 11 6 - - W 1019,2 50 0,0
21.05.2019 19:00:00 11,6 2,9 - - 16 9 - - W 1019,2 50 0,0
21.05.2019 18:00:00 11,2 1,9 - - 16 9 - - WNW 1019,0 50 0,0
21.05.2019 17:00:00 11,2 3,3 - - 13 7 - - W 1019,0 50 0,0
21.05.2019 16:00:00 12,5 3,6 - - 13 7 - - NW 1018,9 35 0,0
21.05.2019 15:00:00 13,8 5,0 - - 16 9 - - NW 1018,7 45 0,0
21.05.2019 14:00:00 12,0 2,8 - - 15 8 - - WNW 1018,9 45 0,0
21.05.2019 13:00:00 12,7 3,9 - - 15 8 - - W 1018,8 30 0,0
21.05.2019 12:00:00 11,4 4,4 - - 5 3 - - NNW 1019,1 30 0,0
21.05.2019 11:00:00 9,7 4,5 - - 9 5 - - WNW 1019,4 40 0,0
21.05.2019 10:00:00 11,0 5,6 11,9 10,7 5 3 - - N 1019,2 50 0,0
21.05.2019 09:00:00 8,7 5,5 - - 9 5 - - WNW 1019,1 50 0,0
21.05.2019 08:00:00 8,2 6,0 - - 11 6 - - WNW 1018,9 45 0,0
21.05.2019 07:00:00 7,6 6,2 - - 4 2 - - WNW 1018,8 50 0,0
21.05.2019 06:00:00 6,7 6,2 - - 5 3 - - W 1018,7 50 0,0
21.05.2019 05:00:00 6,5 5,8 - - 8 4 - - NNW 1018,6 45 0,0
21.05.2019 04:00:00 7,7 6,5 - - 5 3 - - W 1018,1 50 0,0
21.05.2019 03:00:00 7,6 6,5 - - 4 2 - - WNW 1017,9 50 0,0
21.05.2019 02:00:00 8,9 6,3 - - 8 4 - - WNW 1017,4 50 0,0
21.05.2019 01:00:00 8,6 8,0 - - 4 2 - - NNW 1017,4 50 0,0
21.05.2019 00:00:00 8,4 8,4 - - 4 2 - - NE 1017,3 9 0,0
20.05.2019 23:00:00 8,6 8,3 - - 2 1 - - S 1017,0 9 1,0
20.05.2019 22:00:00 8,9 8,5 - - 4 2 - - S 1017,0 8 0,8
20.05.2019 21:00:00 9,9 7,4 - - 8 4 - - W 1016,3 18 0,4
20.05.2019 20:00:00 10,4 8,2 - - 5 3 - - NW 1016,1 27 0,0
20.05.2019 19:00:00 10,9 8,1 - - 8 4 - - NW 1015,7 40 0,2
20.05.2019 18:00:00 11,5 8,1 - - 9 5 - - WNW 1015,2 50 0,0
20.05.2019 17:00:00 11,2 7,7 - - 16 9 - - WNW 1014,9 40 0,0
20.05.2019 16:00:00 11,9 7,6 - - 18 10 - - NW 1014,6 50 0,0
20.05.2019 15:00:00 12,5 7,4 - - 16 9 - - NW 1014,1 50 0,0
20.05.2019 14:00:00 13,0 8,5 - - 11 6 - - SW 1013,9 50 0,0
20.05.2019 13:00:00 12,3 7,6 - - 11 6 - - W 1013,8 35 0,0
20.05.2019 12:00:00 12,3 8,2 - - 13 7 - - WNW 1013,6 50 0,0
20.05.2019 11:00:00 11,2 8,0 - - 15 8 - - NW 1013,8 40 0,0
20.05.2019 10:00:00 10,7 9,0 11,7 10,5 11 6 - - NW 1013,7 45 0,0
20.05.2019 09:00:00 10,2 9,4 - - 8 4 - - N 1013,6 35 0,0
20.05.2019 08:00:00 9,4 8,9 - - 4 2 - - NNW 1013,3 30 0,0
20.05.2019 07:00:00 9,0 8,7 - - 5 3 - - N 1013,0 11 0,2
20.05.2019 06:00:00 8,7 8,5 - - 5 3 - - WNW 1012,8 7 0,2
20.05.2019 05:00:00 8,6 8,5 - - 4 2 - - NW 1012,6 5 0,0
20.05.2019 04:00:00 8,7 8,6 - - 5 3 - - N 1012,5 11 0,0
20.05.2019 03:00:00 8,9 8,7 - - 5 3 - - NW 1012,6 9 0,0
20.05.2019 02:00:00 8,9 8,7 - - 4 2 - - NNW 1012,6 8 0,0
20.05.2019 01:00:00 8,9 8,7 - - 4 2 - - NW 1012,7 16 0,0
20.05.2019 00:00:00 9,0 8,8 - - 5 3 - - N 1012,5 11 0,0
19.05.2019 23:00:00 9,1 8,8 - - 8 4 - - N 1012,4 22 0,0

tt = temperature
td = dewpoint
tt -20cm = temperature -20cm
tt -100cm = temperature -100cm
ff = wind speed
fx = gusts
dd = wind direction
ppp = reduced air pressure
vv = visibility
rr = precipitation

Next stations